Time,TemperatureF,DewpointF,PressureIn,WindDirection,WindDirectionDegrees,WindSpeedMPH,WindSpeedGustMPH,Humidity,HourlyPrecipIn,Conditions,Clouds,dailyrainin,SoftwareType,DateUTC
2013-02-18 00:05:00,36.9,19.5,30.22,South,188,0.0,1.0,49,0.00,,CLR,0.00,VWS V13.01,2013-02-18 06:05:00,
2013-02-18 00:13:00,37.5,19.1,30.22,SW,219,0.0,3.0,47,0.00,,CLR,0.00,VWS V13.01,2013-02-18 06:13:00,
2013-02-18 00:21:00,37.9,19.5,30.22,SSE,167,0.0,2.0,47,0.00,,CLR,0.00,VWS V13.01,2013-02-18 06:21:00,
2013-02-18 00:28:00,38.1,19.7,30.21,SW,222,0.0,6.0,47,0.00,,CLR,0.00,VWS V13.01,2013-02-18 06:28:00,
2013-02-18 00:37:00,38.2,19.3,30.21,SSW,205,0.0,3.0,46,0.00,,CLR,0.00,VWS V13.01,2013-02-18 06:37:00,
2013-02-18 00:43:00,38.2,19.3,30.21,SSW,213,2.0,3.0,46,0.00,,CLR,0.00,VWS V13.01,2013-02-18 06:43:00,
2013-02-18 00:49:00,38.2,19.3,30.21,SSW,213,0.0,1.0,46,0.00,,CLR,0.00,VWS V13.01,2013-02-18 06:49:00,
2013-02-18 00:57:00,38.1,19.2,30.21,SSW,213,0.0,1.0,46,0.00,,CLR,0.00,VWS V13.01,2013-02-18 06:57:00,
2013-02-18 01:05:00,37.8,19.9,30.21,SSW,213,0.0,0.0,48,0.00,,CLR,0.00,VWS V13.01,2013-02-18 07:05:00,
2013-02-18 01:13:00,37.3,19.4,30.21,SSW,213,0.0,0.0,48,0.00,,CLR,0.00,VWS V13.01,2013-02-18 07:13:00,
2013-02-18 01:21:00,37.1,19.2,30.21,SSW,213,0.0,1.0,48,0.00,,CLR,0.00,VWS V13.01,2013-02-18 07:21:00,
2013-02-18 01:28:00,36.9,19.1,30.21,SSW,213,0.0,1.0,48,0.00,,CLR,0.00,VWS V13.01,2013-02-18 07:28:00,
2013-02-18 01:37:00,36.6,19.3,30.21,SSW,213,0.0,0.0,49,0.00,,CLR,0.00,VWS V13.01,2013-02-18 07:37:00,
2013-02-18 01:43:00,36.5,19.2,30.21,SSW,213,0.0,0.0,49,0.00,,CLR,0.00,VWS V13.01,2013-02-18 07:43:00,
2013-02-18 01:49:00,36.3,19.0,30.21,SSW,213,0.0,0.0,49,0.00,,CLR,0.00,VWS V13.01,2013-02-18 07:49:00,
2013-02-18 01:57:00,36.2,19.4,30.21,SSW,213,0.0,0.0,50,0.00,,CLR,0.00,VWS V13.01,2013-02-18 07:57:00,
2013-02-18 02:05:00,36.0,19.2,30.21,SSW,213,0.0,1.0,50,0.00,,CLR,0.00,VWS V13.01,2013-02-18 08:05:00,
2013-02-18 02:13:00,36.3,19.5,30.21,SSW,213,0.0,2.0,50,0.00,,CLR,0.00,VWS V13.01,2013-02-18 08:13:00,
2013-02-18 02:21:00,36.8,19.5,30.21,South,181,0.0,3.0,49,0.00,,CLR,0.00,VWS V13.01,2013-02-18 08:21:00,
2013-02-18 02:28:00,36.6,19.7,30.21,South,181,0.0,3.0,50,0.00,,CLR,0.00,VWS V13.01,2013-02-18 08:28:00,
2013-02-18 02:37:00,37.5,20.1,30.21,SW,227,0.0,5.0,49,0.00,,CLR,0.00,VWS V13.01,2013-02-18 08:37:00,
2013-02-18 02:43:00,38.1,20.6,30.21,SSW,209,0.0,5.0,49,0.00,,CLR,0.00,VWS V13.01,2013-02-18 08:43:00,
2013-02-18 02:49:00,38.6,20.6,30.21,South,186,0.0,2.0,48,0.00,,CLR,0.00,VWS V13.01,2013-02-18 08:49:00,
2013-02-18 02:57:00,39.8,21.2,30.21,SSW,195,4.0,8.0,47,0.00,,CLR,0.00,VWS V13.01,2013-02-18 08:57:00,
2013-02-18 03:05:00,40.2,21.6,30.20,SW,227,0.0,8.0,47,0.00,,CLR,0.00,VWS V13.01,2013-02-18 09:05:00,
2013-02-18 03:13:00,40.5,21.9,30.20,WSW,254,4.0,8.0,47,0.00,,CLR,0.00,VWS V13.01,2013-02-18 09:13:00,
2013-02-18 03:21:00,40.6,22.0,30.20,SW,216,0.0,7.0,47,0.00,,CLR,0.00,VWS V13.01,2013-02-18 09:21:00,
2013-02-18 03:28:00,40.5,21.9,30.21,SW,215,2.0,7.0,47,0.00,,CLR,0.00,VWS V13.01,2013-02-18 09:28:00,
2013-02-18 03:33:00,40.5,22.4,30.21,WSW,256,0.0,6.0,48,0.00,,CLR,0.00,VWS V13.01,2013-02-18 09:33:00,
2013-02-18 03:41:00,40.3,22.7,30.21,WSW,237,6.0,6.0,49,0.00,,CLR,0.00,VWS V13.01,2013-02-18 09:41:00,
2013-02-18 03:49:00,40.3,22.7,30.21,SSW,208,6.0,7.0,49,0.00,,CLR,0.00,VWS V13.01,2013-02-18 09:49:00,
2013-02-18 03:58:00,40.2,23.1,30.21,SW,223,8.0,8.0,50,0.00,,CLR,0.00,VWS V13.01,2013-02-18 09:58:00,
2013-02-18 04:06:00,40.2,23.1,30.21,SW,227,0.0,8.0,50,0.00,,CLR,0.00,VWS V13.01,2013-02-18 10:06:00,
2013-02-18 04:13:00,39.9,23.3,30.22,SW,230,0.0,8.0,51,0.00,,CLR,0.00,VWS V13.01,2013-02-18 10:13:00,
2013-02-18 04:22:00,39.8,23.6,30.22,SW,226,2.0,6.0,52,0.00,,CLR,0.00,VWS V13.01,2013-02-18 10:22:00,
2013-02-18 04:28:00,39.8,23.6,30.23,South,171,0.0,6.0,52,0.00,,CLR,0.00,VWS V13.01,2013-02-18 10:28:00,
2013-02-18 04:34:00,39.5,23.8,30.23,SSW,210,0.0,1.0,53,0.00,,CLR,0.00,VWS V13.01,2013-02-18 10:34:00,
2013-02-18 04:42:00,39.3,24.1,30.23,SSW,213,0.0,5.0,54,0.00,,CLR,0.00,VWS V13.01,2013-02-18 10:42:00,
2013-02-18 04:50:00,39.2,24.4,30.23,South,179,0.0,2.0,55,0.00,,CLR,0.00,VWS V13.01,2013-02-18 10:50:00,
2013-02-18 04:58:00,38.9,24.6,30.23,SSW,195,0.0,2.0,56,0.00,,CLR,0.00,VWS V13.01,2013-02-18 10:58:00,
2013-02-18 05:06:00,38.9,24.6,30.23,SSW,210,2.0,7.0,56,0.00,,CLR,0.00,VWS V13.01,2013-02-18 11:06:00,
2013-02-18 05:13:00,39.2,24.8,30.23,SSW,213,0.0,7.0,56,0.00,,CLR,0.00,VWS V13.01,2013-02-18 11:13:00,
2013-02-18 05:22:00,39.1,25.2,30.23,SSW,210,0.0,5.0,57,0.00,,CLR,0.00,VWS V13.01,2013-02-18 11:22:00,
2013-02-18 05:28:00,38.9,25.4,30.23,SSW,205,0.0,5.0,58,0.00,,CLR,0.00,VWS V13.01,2013-02-18 11:28:00,
2013-02-18 05:34:00,38.9,25.4,30.23,South,188,0.0,4.0,58,0.00,,CLR,0.00,VWS V13.01,2013-02-18 11:34:00,
2013-02-18 05:42:00,39.1,25.6,30.23,SSW,198,6.0,6.0,58,0.00,,CLR,0.00,VWS V13.01,2013-02-18 11:42:00,
2013-02-18 05:50:00,38.8,25.7,30.24,SSW,192,0.0,0.0,59,0.00,,CLR,0.00,VWS V13.01,2013-02-18 11:50:00,
2013-02-18 05:58:00,38.3,25.6,30.24,SSW,205,0.0,2.0,60,0.00,,CLR,0.00,VWS V13.01,2013-02-18 11:58:00,
2013-02-18 06:06:00,38.2,26.0,30.24,South,189,0.0,0.0,61,0.00,,CLR,0.00,VWS V13.01,2013-02-18 12:06:00,
2013-02-18 06:13:00,38.1,26.2,30.24,South,189,0.0,1.0,62,0.00,,CLR,0.00,VWS V13.01,2013-02-18 12:13:00,
2013-02-18 06:22:00,37.8,26.7,30.24,South,182,0.0,0.0,64,0.00,,CLR,0.00,VWS V13.01,2013-02-18 12:22:00,
2013-02-18 06:28:00,37.8,26.7,30.25,SSW,209,4.0,5.0,64,0.00,,CLR,0.00,VWS V13.01,2013-02-18 12:28:00,
2013-02-18 06:34:00,37.9,27.2,30.25,SSW,209,0.0,2.0,65,0.00,,CLR,0.00,VWS V13.01,2013-02-18 12:34:00,
2013-02-18 06:42:00,38.1,27.8,30.25,SW,230,0.0,5.0,66,0.00,,CLR,0.00,VWS V13.01,2013-02-18 12:42:00,
2013-02-18 06:50:00,37.9,27.6,30.25,SW,230,0.0,0.0,66,0.00,,CLR,0.00,VWS V13.01,2013-02-18 12:50:00,
2013-02-18 06:58:00,37.9,28.3,30.25,South,191,0.0,3.0,68,0.00,,CLR,0.00,VWS V13.01,2013-02-18 12:58:00,
2013-02-18 07:06:00,37.9,28.6,30.25,South,191,0.0,1.0,69,0.00,,CLR,0.00,VWS V13.01,2013-02-18 13:06:00,
2013-02-18 07:13:00,37.8,28.6,30.25,South,191,0.0,1.0,69,0.00,,CLR,0.00,VWS V13.01,2013-02-18 13:13:00,
2013-02-18 07:18:00,37.8,28.9,30.25,South,191,0.0,0.0,70,0.00,,CLR,0.00,VWS V13.01,2013-02-18 13:18:00,
2013-02-18 07:26:00,38.2,28.6,30.25,SW,230,0.0,2.0,68,0.00,,CLR,0.00,VWS V13.01,2013-02-18 13:26:00,
2013-02-18 07:34:00,39.1,28.0,30.25,SSW,203,0.0,6.0,64,0.00,,CLR,0.00,VWS V13.01,2013-02-18 13:34:00,
2013-02-18 07:43:00,39.8,28.2,30.26,SW,216,0.0,7.0,63,0.00,,CLR,0.00,VWS V13.01,2013-02-18 13:43:00,
2013-02-18 07:51:00,40.1,28.1,30.26,SW,215,12.0,12.0,62,0.00,,CLR,0.00,VWS V13.01,2013-02-18 13:51:00,
2013-02-18 07:58:00,40.3,28.7,30.26,SW,233,0.0,7.0,63,0.00,,CLR,0.00,VWS V13.01,2013-02-18 13:58:00,
2013-02-18 08:07:00,40.8,28.8,30.26,SW,215,0.0,6.0,62,0.00,,CLR,0.00,VWS V13.01,2013-02-18 14:07:00,
2013-02-18 08:13:00,41.1,29.5,30.26,WSW,254,0.0,6.0,63,0.00,,CLR,0.00,VWS V13.01,2013-02-18 14:13:00,
2013-02-18 08:19:00,41.3,29.3,30.26,WSW,256,0.0,1.0,62,0.00,,CLR,0.00,VWS V13.01,2013-02-18 14:19:00,
2013-02-18 08:27:00,41.8,29.4,30.26,West,261,2.0,2.0,61,0.00,,CLR,0.00,VWS V13.01,2013-02-18 14:27:00,
2013-02-18 08:35:00,42.1,30.4,30.26,SW,236,2.0,4.0,63,0.00,,CLR,0.00,VWS V13.01,2013-02-18 14:35:00,
2013-02-18 08:43:00,42.8,30.7,30.26,SSW,210,6.0,6.0,62,0.00,,CLR,0.00,VWS V13.01,2013-02-18 14:43:00,
2013-02-18 08:51:00,43.7,31.1,30.26,WSW,240,8.0,8.0,61,0.00,,CLR,0.00,VWS V13.01,2013-02-18 14:51:00,
2013-02-18 08:58:00,44.2,31.6,30.26,SW,224,4.0,7.0,61,0.00,,CLR,0.00,VWS V13.01,2013-02-18 14:58:00,
2013-02-18 09:03:00,44.7,32.1,30.26,SW,215,0.0,5.0,61,0.00,,CLR,0.00,VWS V13.01,2013-02-18 15:03:00,
2013-02-18 09:11:00,45.6,32.9,30.26,SW,232,0.0,6.0,61,0.00,,CLR,0.00,VWS V13.01,2013-02-18 15:11:00,
2013-02-18 09:19:00,46.9,33.8,30.25,SSW,213,0.0,10.0,60,0.00,,CLR,0.00,VWS V13.01,2013-02-18 15:19:00,
2013-02-18 09:27:00,47.9,33.8,30.25,SW,236,8.0,10.0,58,0.00,,CLR,0.00,VWS V13.01,2013-02-18 15:27:00,
2013-02-18 09:35:00,48.8,34.3,30.25,SSW,192,12.0,12.0,57,0.00,,CLR,0.00,VWS V13.01,2013-02-18 15:35:00,
2013-02-18 09:43:00,49.3,33.8,30.25,West,261,10.0,14.0,55,0.00,,CLR,0.00,VWS V13.01,2013-02-18 15:43:00,
2013-02-18 09:52:00,49.9,33.9,30.25,WSW,250,12.0,17.0,54,0.00,,CLR,0.00,VWS V13.01,2013-02-18 15:52:00,
2013-02-18 09:58:00,51.1,34.6,30.24,WSW,243,4.0,17.0,53,0.00,,CLR,0.00,VWS V13.01,2013-02-18 15:58:00,
2013-02-18 10:04:00,51.1,34.6,30.24,WSW,256,16.0,16.0,53,0.00,,CLR,0.00,VWS V13.01,2013-02-18 16:04:00,
2013-02-18 10:12:00,51.5,35.4,30.24,WSW,237,2.0,11.0,54,0.00,,CLR,0.00,VWS V13.01,2013-02-18 16:12:00,
2013-02-18 10:20:00,51.5,35.0,30.23,West,272,6.0,16.0,53,0.00,,CLR,0.00,VWS V13.01,2013-02-18 16:20:00,
2013-02-18 10:28:00,52.5,34.9,30.23,WSW,254,4.0,16.0,51,0.00,,CLR,0.00,VWS V13.01,2013-02-18 16:28:00,
2013-02-18 10:36:00,52.5,34.9,30.23,WSW,241,12.0,14.0,51,0.00,,CLR,0.00,VWS V13.01,2013-02-18 16:36:00,
2013-02-18 10:43:00,53.3,34.7,30.23,SW,234,10.0,14.0,49,0.00,,CLR,0.00,VWS V13.01,2013-02-18 16:43:00,
2013-02-18 10:52:00,53.6,34.9,30.23,SW,224,10.0,21.0,49,0.00,,CLR,0.00,VWS V13.01,2013-02-18 16:52:00,
2013-02-18 10:58:00,53.7,35.0,30.22,West,264,22.0,22.0,49,0.00,,CLR,0.00,VWS V13.01,2013-02-18 16:58:00,
2013-02-18 11:04:00,54.5,35.8,30.22,SW,226,20.0,20.0,49,0.00,,CLR,0.00,VWS V13.01,2013-02-18 17:04:00,
2013-02-18 11:12:00,54.6,35.3,30.22,WSW,243,2.0,17.0,48,0.00,,CLR,0.00,VWS V13.01,2013-02-18 17:12:00,
2013-02-18 11:20:00,54.9,34.0,30.21,SW,216,32.0,32.0,45,0.00,,CLR,0.00,VWS V13.01,2013-02-18 17:20:00,
2013-02-18 11:28:00,54.7,34.3,30.20,SW,226,12.0,20.0,46,0.00,,CLR,0.00,VWS V13.01,2013-02-18 17:28:00,
2013-02-18 11:36:00,55.5,34.0,30.20,SSE,161,8.0,16.0,44,0.00,,CLR,0.00,VWS V13.01,2013-02-18 17:36:00,
2013-02-18 11:43:00,55.3,33.8,30.20,WSW,241,14.0,16.0,44,0.00,,CLR,0.00,VWS V13.01,2013-02-18 17:43:00,
2013-02-18 11:48:00,56.0,34.4,30.20,WSW,239,4.0,12.0,44,0.00,,CLR,0.00,VWS V13.01,2013-02-18 17:48:00,
2013-02-18 11:56:00,56.0,33.2,30.20,WSW,243,16.0,16.0,42,0.00,,CLR,0.00,VWS V13.01,2013-02-18 17:56:00,
2013-02-18 12:04:00,56.7,33.9,30.18,WSW,239,16.0,18.0,42,0.00,,CLR,0.00,VWS V13.01,2013-02-18 18:04:00,
2013-02-18 12:12:00,56.6,33.8,30.18,SW,216,14.0,20.0,42,0.00,,CLR,0.00,VWS V13.01,2013-02-18 18:12:00,
2013-02-18 12:20:00,57.3,33.8,30.17,SSW,195,22.0,22.0,41,0.00,,CLR,0.00,VWS V13.01,2013-02-18 18:20:00,
2013-02-18 12:28:00,57.6,35.3,30.16,SW,227,20.0,20.0,43,0.00,,CLR,0.00,VWS V13.01,2013-02-18 18:28:00,
2013-02-18 12:37:00,57.5,34.6,30.16,WSW,247,24.0,24.0,42,0.00,,CLR,0.00,VWS V13.01,2013-02-18 18:37:00,
2013-02-18 12:43:00,58.4,34.8,30.14,SW,232,8.0,20.0,41,0.00,,CLR,0.00,VWS V13.01,2013-02-18 18:43:00,
2013-02-18 12:49:00,58.7,33.8,30.14,SSW,206,4.0,11.0,39,0.00,,CLR,0.00,VWS V13.01,2013-02-18 18:49:00,
2013-02-18 12:57:00,58.7,34.5,30.14,SSW,205,10.0,14.0,40,0.00,,CLR,0.00,VWS V13.01,2013-02-18 18:57:00,
2013-02-18 13:05:00,59.3,35.0,30.12,WSW,243,4.0,12.0,40,0.00,,CLR,0.00,VWS V13.01,2013-02-18 19:05:00,
2013-02-18 13:13:00,59.3,34.4,30.11,SW,234,2.0,17.0,39,0.00,,CLR,0.00,VWS V13.01,2013-02-18 19:13:00,
2013-02-18 13:21:00,60.1,35.1,30.11,SSE,164,2.0,14.0,39,0.00,,CLR,0.00,VWS V13.01,2013-02-18 19:21:00,
2013-02-18 13:28:00,59.0,34.1,30.10,West,278,14.0,17.0,39,0.00,,CLR,0.00,VWS V13.01,2013-02-18 19:28:00,
2013-02-18 13:41:00,59.2,34.3,30.10,SSW,209,14.0,16.0,39,0.00,,CLR,0.00,VWS V13.01,2013-02-18 19:41:00,
2013-02-18 13:49:00,59.5,34.5,30.09,WSW,244,12.0,15.0,39,0.00,,CLR,0.00,VWS V13.01,2013-02-18 19:49:00,
2013-02-18 13:57:00,59.0,33.5,30.09,South,184,14.0,15.0,38,0.00,,CLR,0.00,VWS V13.01,2013-02-18 19:57:00,
2013-02-18 14:05:00,59.2,34.3,30.09,SW,234,4.0,16.0,39,0.00,,FEW120,0.00,VWS V13.01,2013-02-18 20:05:00,
2013-02-18 14:13:00,59.6,34.0,30.09,West,270,20.0,20.0,38,0.00,,FEW120,0.00,VWS V13.01,2013-02-18 20:13:00,
2013-02-18 14:21:00,59.3,33.7,30.09,WSW,246,4.0,10.0,38,0.00,,FEW120,0.00,VWS V13.01,2013-02-18 20:21:00,
2013-02-18 14:28:00,59.0,33.5,30.08,WSW,239,22.0,22.0,38,0.00,,FEW120,0.00,VWS V13.01,2013-02-18 20:28:00,
2013-02-18 14:37:00,58.9,32.0,30.08,SW,230,22.0,22.0,36,0.00,,FEW120,0.00,VWS V13.01,2013-02-18 20:37:00,
2013-02-18 14:43:00,58.9,32.7,30.07,WSW,247,16.0,16.0,37,0.00,,FEW120,0.00,VWS V13.01,2013-02-18 20:43:00,
2013-02-18 14:49:00,59.5,32.5,30.07,South,181,10.0,25.0,36,0.00,,FEW120,0.00,VWS V13.01,2013-02-18 20:49:00,
2013-02-18 14:57:00,60.0,33.0,30.07,WSW,241,12.0,25.0,36,0.00,,FEW120,0.00,VWS V13.01,2013-02-18 20:57:00,
2013-02-18 15:05:00,60.0,33.0,30.07,WSW,239,0.0,12.0,36,0.00,,OVC110,0.00,VWS V13.01,2013-02-18 21:05:00,
2013-02-18 15:13:00,59.8,32.8,30.06,SW,220,14.0,18.0,36,0.00,,OVC110,0.00,VWS V13.01,2013-02-18 21:13:00,
2013-02-18 15:21:00,59.5,31.9,30.06,WSW,258,2.0,16.0,35,0.00,,OVC110,0.00,VWS V13.01,2013-02-18 21:21:00,
2013-02-18 15:28:00,60.0,32.3,30.05,NNW,340,26.0,26.0,35,0.00,,OVC110,0.00,VWS V13.01,2013-02-18 21:28:00,
2013-02-18 15:34:00,60.3,31.8,30.05,SSW,202,2.0,20.0,34,0.00,,OVC110,0.00,VWS V13.01,2013-02-18 21:34:00,
2013-02-18 15:42:00,60.1,31.7,30.05,West,272,4.0,20.0,34,0.00,,OVC110,0.00,VWS V13.01,2013-02-18 21:42:00,
2013-02-18 15:50:00,59.5,32.5,30.04,WSW,237,12.0,13.0,36,0.00,,OVC110,0.00,VWS V13.01,2013-02-18 21:50:00,
2013-02-18 16:00:00,59.3,32.4,30.03,WSW,248,6.0,14.0,36,0.00,,OVC110,0.00,VWS V13.01,2013-02-18 22:00:00,
2013-02-18 16:13:00,58.2,32.1,30.02,SSE,160,4.0,6.0,37,0.00,,OVC110,0.00,VWS V13.01,2013-02-18 22:13:00,
2013-02-18 16:30:00,58.1,32.7,30.01,WSW,248,8.0,13.0,38,0.00,,OVC110,0.00,VWS V13.01,2013-02-18 22:30:00,
2013-02-18 16:54:00,57.8,33.0,30.01,SW,225,12.0,21.0,39,0.00,,OVC110,0.00,VWS V13.01,2013-02-18 22:54:00,
2013-02-18 17:02:00,57.6,32.8,30.00,WSW,248,10.0,19.0,39,0.00,,OVC110,0.00,VWS V13.01,2013-02-18 23:02:00,
2013-02-18 17:09:00,57.3,33.2,30.00,SE,145,0.0,10.0,40,0.00,,OVC110,0.00,VWS V13.01,2013-02-18 23:09:00,
2013-02-18 17:17:00,57.0,33.5,30.00,WSW,254,2.0,9.0,41,0.00,,OVC110,0.00,VWS V13.01,2013-02-18 23:17:00,
2013-02-18 17:25:00,56.6,33.2,30.00,WSW,254,4.0,9.0,41,0.00,,OVC110,0.00,VWS V13.01,2013-02-18 23:25:00,
2013-02-18 17:43:00,56.3,33.5,30.00,West,265,4.0,4.0,42,0.00,,OVC110,0.00,VWS V13.01,2013-02-18 23:43:00,
2013-02-18 18:00:00,56.2,31.6,29.99,SW,225,6.0,11.0,39,0.00,,OVC110,0.00,VWS V13.01,2013-02-19 00:00:00,
2013-02-18 18:15:00,55.8,31.2,29.98,WSW,248,6.0,13.0,39,0.00,,OVC110,0.00,VWS V13.01,2013-02-19 00:15:00,
2013-02-18 18:30:00,55.3,31.4,29.97,WSW,248,8.0,20.0,40,0.00,,OVC110,0.00,VWS V13.01,2013-02-19 00:30:00,
2013-02-18 18:45:00,55.0,31.1,29.98,WSW,248,6.0,21.0,40,0.00,,OVC110,0.00,VWS V13.01,2013-02-19 00:45:00,
2013-02-18 19:04:00,54.9,30.4,29.98,SW,225,6.0,14.0,39,0.00,,OVC110,0.00,VWS V13.01,2013-02-19 01:04:00,
2013-02-18 19:12:00,55.0,30.5,29.98,WSW,247,4.0,16.0,39,0.00,,OVC110,0.00,VWS V13.01,2013-02-19 01:12:00,
2013-02-18 19:20:00,54.9,30.4,29.98,NW,306,0.0,11.0,39,0.00,,OVC110,0.00,VWS V13.01,2013-02-19 01:20:00,
2013-02-18 19:28:00,54.9,30.4,29.98,West,272,2.0,11.0,39,0.00,,OVC110,0.00,VWS V13.01,2013-02-19 01:28:00,
2013-02-18 19:36:00,55.0,30.5,29.98,WSW,246,6.0,16.0,39,0.00,,FEW120,0.00,VWS V13.01,2013-02-19 01:36:00,
2013-02-18 19:43:00,55.0,30.5,29.98,SW,227,8.0,16.0,39,0.00,,FEW120,0.00,VWS V13.01,2013-02-19 01:43:00,
2013-02-18 19:49:00,55.0,29.9,29.98,SSW,193,2.0,11.0,38,0.00,,FEW120,0.00,VWS V13.01,2013-02-19 01:49:00,
2013-02-18 19:57:00,54.9,30.4,29.98,South,169,12.0,12.0,39,0.00,,FEW120,0.00,VWS V13.01,2013-02-19 01:57:00,
2013-02-18 20:05:00,54.7,30.2,29.96,SW,215,12.0,12.0,39,0.00,,OVC055,0.00,VWS V13.01,2013-02-19 02:05:00,
2013-02-18 20:13:00,54.7,30.2,29.94,SW,234,4.0,14.0,39,0.00,,OVC055,0.00,VWS V13.01,2013-02-19 02:13:00,
2013-02-18 20:21:00,54.9,30.4,29.94,NNE,16,2.0,21.0,39,0.00,,OVC055,0.00,VWS V13.01,2013-02-19 02:21:00,
2013-02-18 20:28:00,54.9,30.4,29.95,SSW,208,0.0,21.0,39,0.00,,OVC055,0.00,VWS V13.01,2013-02-19 02:28:00,
2013-02-18 20:37:00,55.0,30.5,29.95,SSE,161,12.0,16.0,39,0.00,,OVC055,0.00,VWS V13.01,2013-02-19 02:37:00,
2013-02-18 20:43:00,55.0,30.5,29.95,WSW,241,14.0,25.0,39,0.00,,OVC055,0.00,VWS V13.01,2013-02-19 02:43:00,
2013-02-18 20:49:00,55.2,30.7,29.95,SW,215,26.0,26.0,39,0.00,,OVC055,0.00,VWS V13.01,2013-02-19 02:49:00,
2013-02-18 20:57:00,55.2,31.3,29.95,SW,220,12.0,27.0,40,0.00,,OVC055,0.00,VWS V13.01,2013-02-19 02:57:00,
2013-02-18 21:05:00,55.0,31.1,29.95,South,172,6.0,21.0,40,0.00,,OVC050,0.00,VWS V13.01,2013-02-19 03:05:00,
2013-02-18 21:13:00,55.0,31.8,29.94,South,188,0.0,21.0,41,0.00,,OVC050,0.00,VWS V13.01,2013-02-19 03:13:00,
2013-02-18 21:21:00,54.9,32.3,29.94,NNE,14,6.0,17.0,42,0.00,,OVC050,0.00,VWS V13.01,2013-02-19 03:21:00,
2013-02-18 21:28:00,54.7,32.7,29.94,WSW,243,24.0,24.0,43,0.00,,OVC050,0.00,VWS V13.01,2013-02-19 03:28:00,
2013-02-18 21:33:00,54.7,32.1,29.94,South,176,12.0,18.0,42,0.00,,OVC050,0.00,VWS V13.01,2013-02-19 03:33:00,
2013-02-18 21:42:00,54.7,32.7,29.94,South,181,10.0,20.0,43,0.00,,OVC050,0.00,VWS V13.01,2013-02-19 03:42:00,
2013-02-18 21:50:00,54.3,34.0,29.94,ENE,66,4.0,22.0,46,0.00,,OVC050,0.00,VWS V13.01,2013-02-19 03:50:00,
2013-02-18 21:58:00,53.6,34.9,29.92,WSW,253,6.0,22.0,49,0.00,,OVC050,0.00,VWS V13.01,2013-02-19 03:58:00,
2013-02-18 22:06:00,53.0,36.3,29.92,NE,54,4.0,14.0,53,0.00,,-RA,0.00,VWS V13.01,2013-02-19 04:06:00,
2013-02-18 22:13:00,50.9,38.0,29.92,SW,227,4.0,22.0,61,0.01,,-RA,0.01,VWS V13.01,2013-02-19 04:13:00,
2013-02-18 22:19:00,50.3,39.0,29.92,SW,223,18.0,18.0,65,0.02,,-RA,0.02,VWS V13.01,2013-02-19 04:19:00,
2013-02-18 22:27:00,49.7,39.6,29.92,North,0,10.0,18.0,68,0.03,,-RA,0.03,VWS V13.01,2013-02-19 04:27:00,
2013-02-18 22:35:00,49.6,39.5,29.92,South,189,14.0,18.0,68,0.03,,-RA,0.03,VWS V13.01,2013-02-19 04:35:00,
2013-02-18 22:43:00,49.4,40.0,29.93,SW,223,2.0,18.0,70,0.04,,-RA,0.04,VWS V13.01,2013-02-19 04:43:00,
2013-02-18 22:51:00,49.0,40.4,29.93,SW,224,8.0,8.0,72,0.05,,-RA,0.05,VWS V13.01,2013-02-19 04:51:00,
2013-02-18 22:58:00,48.4,41.2,29.95,WSW,248,14.0,14.0,76,0.06,,-RA,0.06,VWS V13.01,2013-02-19 04:58:00,
2013-02-18 23:03:00,48.2,41.0,29.95,SSE,157,6.0,13.0,76,0.08,,RA,0.09,VWS V13.01,2013-02-19 05:03:00,
2013-02-18 23:07:00,47.5,42.3,29.95,SW,236,6.0,17.0,82,0.12,,RA,0.12,VWS V13.01,2013-02-19 05:07:00,
2013-02-18 23:11:00,46.6,43.2,29.95,WSW,248,6.0,17.0,88,0.14,,RA,0.15,VWS V13.01,2013-02-19 05:11:00,
2013-02-18 23:13:00,46.3,43.2,29.98,WSW,239,8.0,17.0,89,0.16,,RA,0.16,VWS V13.01,2013-02-19 05:13:00,
2013-02-18 23:19:00,45.7,43.8,29.98,SW,226,6.0,12.0,93,0.19,,RA,0.20,VWS V13.01,2013-02-19 05:19:00,
2013-02-18 23:27:00,45.4,44.0,29.98,WSW,240,0.0,12.0,95,0.22,,RA,0.24,VWS V13.01,2013-02-19 05:27:00,
2013-02-18 23:35:00,45.1,44.0,29.97,WSW,243,6.0,11.0,96,0.25,,RA,0.28,VWS V13.01,2013-02-19 05:35:00,
2013-02-18 23:43:00,45.0,44.2,29.97,SSW,202,6.0,11.0,97,0.30,,RA,0.33,VWS V13.01,2013-02-19 05:43:00,
2013-02-18 23:51:00,44.8,44.3,29.97,SW,220,6.0,6.0,98,0.34,,RA,0.38,VWS V13.01,2013-02-19 05:51:00,
2013-02-18 23:58:00,44.8,44.5,29.98,SW,217,2.0,6.0,99,0.39,,RA,0.00,VWS V13.01,2013-02-19 05:58:00,